When you browse on this site, cookies collect data to enhance your experience and personalize the content and advertising you see.
Visit our Privacy Policy to learn more. By continuing to use the site, you agree to this use of cookies and data.
  • In Hungary
  • List of Countries
  • For 7 days
  • Water Temperature
  • Weather Map
  • News
  • Weather Widgets
  • user-avatar
    Login

    Hourly Weather Rutnica

    Today, 14 December, Saturday

    Time Temperature Precipitation Wind Pressure Humidity
    00:00 -1°C° 0 mm 4 mps 730 mmHg 92%
    01:00 -1°C° 0 mm 4 mps 730 mmHg 94%
    02:00 -1°C° 0.3 mm 4 mps 730 mmHg 95%
    03:00 +1°C° 0.3 mm 3 mps 730 mmHg 96%
    04:00 +1°C° 0.3 mm 3 mps 729 mmHg 97%
    05:00 +1°C° 0.5 mm 3 mps 729 mmHg 97%
    06:00 0°C° 0.5 mm 4 mps 730 mmHg 97%
    07:00 +1°C° 0 mm 3 mps 730 mmHg 96%
    08:00 +1°C° 0.1 mm 4 mps 730 mmHg 93%
    09:00 +1°C° 0.1 mm 4 mps 730 mmHg 90%
    10:00 +2°C° 0.1 mm 5 mps 730 mmHg 87%
    11:00 +3°C° 0.1 mm 4 mps 731 mmHg 85%
    12:00 +3°C° 0.1 mm 4 mps 731 mmHg 82%
    13:00 +3°C° 0.1 mm 4 mps 731 mmHg 80%
    14:00 +3°C° 0.9 mm 4 mps 731 mmHg 85%
    15:00 +1°C° 0.9 mm 4 mps 732 mmHg 91%
    16:00 0°C° 0.9 mm 5 mps 732 mmHg 96%
    17:00 +1°C° 0.1 mm 5 mps 733 mmHg 92%
    18:00 +1°C° 0.1 mm 6 mps 734 mmHg 88%
    19:00 +2°C° 0.1 mm 6 mps 735 mmHg 84%
    20:00 +2°C° 0 mm 6 mps 735 mmHg 82%
    21:00 +2°C° 0 mm 6 mps 736 mmHg 80%
    22:00 +2°C° 0 mm 6 mps 736 mmHg 77%
    23:00 +1°C° 0 mm 6 mps 737 mmHg 83%

    Tomorrow, 15 December, Sunday

    Time Temperature Precipitation Wind Pressure Humidity
    00:00 +1°C° 0 mm 6 mps 738 mmHg 88%
    01:00 +1°C° 0 mm 6 mps 738 mmHg 94%
    02:00 +1°C° 0 mm 5 mps 739 mmHg 91%
    03:00 +1°C° 0 mm 5 mps 740 mmHg 89%
    04:00 0°C° 0 mm 4 mps 740 mmHg 87%
    05:00 0°C° 0 mm 4 mps 740 mmHg 86%
    06:00 0°C° 0 mm 4 mps 741 mmHg 85%
    07:00 0°C° 0 mm 4 mps 741 mmHg 84%
    08:00 0°C° 0 mm 5 mps 740 mmHg 80%
    09:00 +1°C° 0 mm 6 mps 740 mmHg 76%
    10:00 +1°C° 0 mm 6 mps 740 mmHg 72%
    11:00 +2°C° 0.7 mm 6 mps 740 mmHg 78%
    12:00 +3°C° 0.7 mm 6 mps 739 mmHg 84%
    13:00 +4°C° 0.7 mm 7 mps 739 mmHg 90%
    14:00 +4°C° 0 mm 6 mps 740 mmHg 85%
    15:00 +4°C° 0 mm 6 mps 741 mmHg 80%
    16:00 +6°C° 0 mm 5 mps 742 mmHg 74%
    17:00 +5°C° 0 mm 5 mps 743 mmHg 75%
    18:00 +3°C° 0 mm 5 mps 743 mmHg 76%
    19:00 +2°C° 0 mm 5 mps 744 mmHg 76%
    20:00 +2°C° 0 mm 5 mps 745 mmHg 77%
    21:00 +2°C° 0 mm 5 mps 745 mmHg 79%
    22:00 +2°C° 0 mm 5 mps 746 mmHg 80%
    23:00 +2°C° 0 mm 5 mps 746 mmHg 81%

    Day after tomorrow, 16 December, Monday

    Time Temperature Precipitation Wind Pressure Humidity
    00:00 +3°C° 0 mm 4 mps 747 mmHg 82%
    01:00 +3°C° 0 mm 4 mps 747 mmHg 83%
    02:00 +1°C° 0 mm 4 mps 748 mmHg 86%
    03:00 +2°C° 0 mm 3 mps 748 mmHg 88%
    04:00 +2°C° 0 mm 3 mps 748 mmHg 91%
    05:00 +2°C° 0 mm 3 mps 748 mmHg 91%
    06:00 +2°C° 0 mm 3 mps 748 mmHg 92%
    07:00 +2°C° 0 mm 3 mps 748 mmHg 93%
    08:00 +3°C° 0 mm 3 mps 749 mmHg 91%
    09:00 +3°C° 0 mm 3 mps 749 mmHg 90%
    10:00 +4°C° 0 mm 3 mps 749 mmHg 89%
    11:00 +5°C° 0 mm 3 mps 749 mmHg 89%
    12:00 +5°C° 0 mm 3 mps 749 mmHg 90%
    13:00 +7°C° 0 mm 3 mps 749 mmHg 91%
    14:00 +7°C° 0 mm 3 mps 749 mmHg 92%
    15:00 +5°C° 0 mm 3 mps 748 mmHg 93%
    16:00 +5°C° 0 mm 3 mps 748 mmHg 95%
    17:00 +5°C° 0 mm 3 mps 748 mmHg 93%
    18:00 +5°C° 0 mm 3 mps 748 mmHg 92%
    19:00 +5°C° 0 mm 3 mps 748 mmHg 91%
    20:00 +5°C° 0 mm 3 mps 748 mmHg 89%
    21:00 +5°C° 0 mm 3 mps 748 mmHg 87%
    22:00 +5°C° 0 mm 3 mps 748 mmHg 85%
    23:00 +5°C° 0 mm 3 mps 747 mmHg 87%

    17 December, Tuesday

    Time Temperature Precipitation Wind Pressure Humidity
    00:00 +4°C° 0 mm 3 mps 747 mmHg 88%
    01:00 +4°C° 0 mm 3 mps 747 mmHg 89%
    02:00 +4°C° 0 mm 3 mps 747 mmHg 90%
    03:00 +4°C° 0 mm 3 mps 746 mmHg 91%
    04:00 +3°C° 0 mm 3 mps 746 mmHg 92%
    05:00 +3°C° 0 mm 3 mps 746 mmHg 91%
    06:00 +3°C° 0 mm 3 mps 746 mmHg 90%
    07:00 +3°C° 0 mm 4 mps 746 mmHg 90%
    08:00 +4°C° 0 mm 4 mps 746 mmHg 87%
    09:00 +5°C° 0 mm 4 mps 747 mmHg 84%
    10:00 +6°C° 0 mm 4 mps 747 mmHg 81%
    11:00 +6°C° 0 mm 4 mps 747 mmHg 78%
    12:00 +7°C° 0 mm 4 mps 747 mmHg 75%
    13:00 +8°C° 0 mm 4 mps 747 mmHg 72%
    14:00 +7°C° 0 mm 4 mps 747 mmHg 76%
    15:00 +8°C° 0 mm 3 mps 747 mmHg 79%
    16:00 +7°C° 0 mm 3 mps 747 mmHg 83%
    17:00 +7°C° 0 mm 3 mps 747 mmHg 83%
    18:00 +7°C° 0 mm 3 mps 747 mmHg 83%
    19:00 +7°C° 0 mm 3 mps 748 mmHg 83%
    20:00 +7°C° 0 mm 3 mps 748 mmHg 83%
    21:00 +7°C° 0 mm 3 mps 748 mmHg 83%
    22:00 +7°C° 0 mm 3 mps 748 mmHg 83%
    23:00 +7°C° 0 mm 3 mps 748 mmHg 83%

    18 December, Wednesday

    Time Temperature Precipitation Wind Pressure Humidity
    00:00 +7°C° 0 mm 3 mps 748 mmHg 83%
    01:00 +7°C° 0 mm 3 mps 748 mmHg 84%
    02:00 +7°C° 0 mm 3 mps 748 mmHg 82%
    03:00 +6°C° 0 mm 4 mps 748 mmHg 81%
    04:00 +6°C° 0 mm 4 mps 748 mmHg 79%
    05:00 +6°C° 0 mm 4 mps 748 mmHg 79%
    06:00 +6°C° 0 mm 4 mps 748 mmHg 79%
    07:00 +6°C° 0 mm 4 mps 748 mmHg 78%
    08:00 +6°C° 0 mm 4 mps 749 mmHg 78%
    09:00 +6°C° 0 mm 4 mps 749 mmHg 77%
    10:00 +6°C° 0 mm 4 mps 750 mmHg 76%
    11:00 +7°C° 0 mm 4 mps 750 mmHg 77%
    12:00 +7°C° 0 mm 4 mps 750 mmHg 78%
    13:00 +8°C° 0 mm 4 mps 751 mmHg 78%
    14:00 +8°C° 0 mm 4 mps 751 mmHg 81%
    15:00 +8°C° 0 mm 3 mps 752 mmHg 84%
    16:00 +7°C° 0 mm 3 mps 753 mmHg 86%
    17:00 +7°C° 0 mm 2 mps 753 mmHg 87%
    18:00 +6°C° 0 mm 2 mps 754 mmHg 88%
    19:00 +6°C° 0 mm 2 mps 754 mmHg 89%
    20:00 +5°C° 0 mm 2 mps 754 mmHg 90%
    21:00 +5°C° 0 mm 1 mps 754 mmHg 90%
    22:00 +5°C° 0 mm 1 mps 755 mmHg 91%
    23:00 +3°C° 0 mm 2 mps 755 mmHg 90%

    19 December, Thursday

    Time Temperature Precipitation Wind Pressure Humidity
    00:00 +3°C° 0 mm 2 mps 755 mmHg 90%
    01:00 +3°C° 0 mm 2 mps 755 mmHg 90%
    02:00 +2°C° 0 mm 2 mps 755 mmHg 90%
    03:00 +2°C° 0 mm 2 mps 754 mmHg 91%
    04:00 +2°C° 0 mm 2 mps 754 mmHg 91%
    05:00 +2°C° 0 mm 2 mps 754 mmHg 91%
    06:00 +2°C° 0 mm 2 mps 754 mmHg 91%
    07:00 +2°C° 0 mm 2 mps 754 mmHg 91%
    08:00 +1°C° 0 mm 3 mps 754 mmHg 91%
    09:00 +2°C° 0 mm 3 mps 754 mmHg 90%
    10:00 +1°C° 0 mm 4 mps 754 mmHg 90%
    11:00 +3°C° 0 mm 4 mps 754 mmHg 87%
    12:00 +3°C° 0 mm 4 mps 753 mmHg 85%
    13:00 +3°C° 0 mm 5 mps 753 mmHg 82%
    14:00 +3°C° 0 mm 5 mps 753 mmHg 82%
    15:00 +2°C° 0 mm 5 mps 752 mmHg 82%
    16:00 +2°C° 0 mm 5 mps 752 mmHg 82%
    17:00 +2°C° 0 mm 5 mps 751 mmHg 82%
    18:00 +2°C° 0 mm 6 mps 751 mmHg 82%
    19:00 +2°C° 0 mm 6 mps 751 mmHg 82%
    20:00 +2°C° 0.1 mm 6 mps 750 mmHg 82%
    21:00 +2°C° 0.1 mm 6 mps 750 mmHg 83%
    22:00 +2°C° 0.1 mm 6 mps 749 mmHg 84%
    23:00 +3°C° 0.2 mm 7 mps 749 mmHg 86%
    Show more